Location: Unspecified
(0.0000°N, 0.0000°E)
Time: 01:29:17
(UTC+00:00)

Vanguard 2 - Pass Details

Date: 19 November 2019
Orbit: 553 x 2938 km, 32.9° (Epoch: 10 December)

Event Time Altitude Azimuth Distance (km) Brightness Sun altitude
Rises 17:05:44 0° 292° (WNW) 2,859 11.3 9.3°
Reaches altitude 10° 17:07:46 10° 287° (WNW) 2,078 10.8 8.9°
Maximum altitude 17:12:19 50° 211° (SSW) 1,057 8.9 7.8°
Drops below altitude 10° 17:19:16 10° 137° (SE) 3,151 10.5 6.2°
Sets 17:23:01 0° 132° (SE) 4,524 11.2 5.3°
